Regional Weather Roundup
Issued by NWS Charleston, SC

Current Version | Previous Version | Text Only | Print | Product List | Glossary Off
Versions: 1 2 3 4 5 6 7 8 9 10 11 12 13 14 15 16 17 18 19 20 21 22 23 24 25 26 27 28 29 30 31 32 33 34 35 36 37 38 39 40 41 42 43 44 45 46 47 48 49 50

000
ASUS42 KCHS 220627
RWRCHS

REGIONAL WEATHER ROUNDUP
NATIONAL WEATHER SERVICE CHARLESTON SC
200 AM EDT FRI MAY 22 2015

NOTE: "FAIR" INDICATES FEW OR NO CLOUDS BELOW 12,000 FEET WITH NO
SIGNIFICANT WEATHER AND/OR OBSTRUCTIONS TO VISIBILITY.

NOT ALL STATIONS ARE QUALITY CONTROLLED BY THE NATIONAL
WEATHER SERVICE. USE DATA WITH CAUTION...ESPECIALLY
DEWPOINT OBSERVATIONS.

SCZ027-030-031-034>040-042>050-220700-
...SOUTHEAST SOUTH CAROLINA...

CITY           SKY/WX    TMP DP  RH WIND       PRES   REMARKS
N CHARLESTON   CLEAR     73  59  61 NW10      29.94R
6HR MIN TEMP:  70; 6HR MAX TEMP:  85;

WATERFRONT PAR   N/A     77  63  61 NW7       29.91R
MOUNT PLEASANT LGT RAIN  75  61  60 NW7       29.93S
JOHNS ISLAND   CLEAR     73  64  73 NW5       29.95R
PINOPOLIS        N/A     79  63  57 NW15      29.85F
MONCKS CORNER  FAIR      72  59  64 CALM      29.93F
SUMMERVILLE    FAIR      72  61  68 NW7       29.95S
BEAUFORT MCAS  CLEAR     76  62  62 NW8       29.95R
6HR MIN TEMP:  76; 6HR MAX TEMP:  86;

BEAUFORT ARPT  FAIR      77  64  65 NW13      29.95R
HILTON HEAD IS CLEAR     75  63  64 W3        29.96S
WALTERBORO     CLEAR     70  59  68 NW8       29.96S
ALLENDALE      FAIR      70  57  64 VRB5      29.98R

...SOUTHERN MIDLANDS AND PEE DEE...

CITY           SKY/WX    TMP DP  RH WIND       PRES   REMARKS
GEORGETOWN     NOT AVBL
KINGSTREE      NOT AVBL
ORANGEBURG     CLEAR     71  55  56 NW13      29.96S
6HR MIN TEMP:  71; 6HR MAX TEMP:  85; 6HR PCP: TRACE;

BARNWELL       FAIR      70  55  60 W8        29.99S
AIKEN          FAIR      63  52  67 NW7       30.04S
MANNING        FAIR      70 -20   2 N3        29.95R
COLUMBIA       CLOUDY    73  51  46 NW10      29.97R
6HR MIN TEMP:  73; 6HR MAX TEMP:  85;

SUMTER         MOCLDY    70  63  78 NE16      29.95R
6HR MIN TEMP:  69; 6HR MAX TEMP:  84;

FLORENCE       CLOUDY    67  61  81 NE10      29.98R
6HR MIN TEMP:  67; 6HR MAX TEMP:  79;

MYRTLE BEACH   CLOUDY    70  61  73 NE10      29.99S
N MYRTLE BEACH CLOUDY    67  60  78 N9        29.97R
6HR MIN TEMP:  67; 6HR MAX TEMP:  79;


$$

GAZ063-065-086>088-099>101-113>116-118-119-134>141-150-220700-
...SOUTHEAST GEORGIA...

CITY           SKY/WX    TMP DP  RH WIND       PRES   REMARKS
SAVANNAH ARPT  CLEAR     74  62  66 NW6       29.96S
6HR MIN TEMP:  74; 6HR MAX TEMP:  85;

HUNTER AAF     CLEAR     73  64  74 W7        29.94S
6HR MIN TEMP:  72; 6HR MAX TEMP:  86;

FORT STEWART   CLEAR     74  62  66 NW6       29.95S
6HR MIN TEMP:  74; 6HR MAX TEMP:  87;

STATESBORO     CLEAR     69  63  81 NW10      29.98S
SYLVANIA       CLEAR     71  61  70 NW9       29.99S
CLAXTON        FAIR      70  63  78 W6        29.99R

...CSRA...CENTRAL AND FAR SOUTHEAST GEORGIA...

CITY           SKY/WX    TMP DP  RH WIND       PRES   REMARKS
THOMSON        MOCLDY    63  55  74 NW6       30.07S
AUGUSTA-BUSH   MOCLDY    67  53  61 NW13      30.00R
6HR MIN TEMP:  67; 6HR MAX TEMP:  83;

AUGUSTA-DANIEL MOCLDY    67  51  56 NW14G20   30.02R
SWAINSBORO     FAIR      70  59  68 NW12G18   30.02S
VIDALIA        CLEAR     70  59  68 N6        30.01S
EASTMAN        FAIR      67  59  75 NW6       30.06S
HAZLEHURST     FAIR      71  62  72 NW3       30.00S
ALMA           CLEAR     72  61  68 NW8       30.00F
6HR MIN TEMP:  72; 6HR MAX TEMP:  86;

WAYCROSS       CLEAR     73  64  74 NW7       30.00S
JESUP          FAIR      75  64  69 NW7       29.98S
BAXLEY         FAIR      73  63  68 NW6       29.99F
BRUNSWICK      CLEAR     73  63  68 W5        29.98F
SAINT SIMONS   NOT AVBL

$$

SCZ027-028-034-036>038-045-046-048>050-GAZ119-141-220700-
...LAKE AND SUPPLEMENTAL COASTAL OBSERVATIONS...

STATION/POSITION TIME  TEMP    WIND        PRES    WAVE   SWELL
                       AIR SEA DIR/SP/G            HT/PER HT/PER/DIR
                 (UTC) (F)     (DEG/KT/KT) (MB)    (FT/S) (FT/S/D)
UPR LAKE MARION  NOT AVBL
WINYAH BAY       0500   74      60/ 10     1013.0R
LAKE MURRAY      0500   71     310/  5/  8 1014.9R
ACE BASIN NERRS  NOT AVBL
FORT PULASKI     0600   74 79              1014.8R
SAPELO ISLAND    0600   76     300/  5     1015.0S

$$

ANZ835-935-AMZ111-154-330-350-352-354-370-450-454-472-220700-
...C-MAN AND BUOY OBSERVATIONS...

STATION/POSITION TIME  TEMP    WIND        PRES    WAVE   SWELL
                       AIR SEA DIR/SP/G            HT/PER HT/PER/DIR
                 (UTC) (F)     (DEG/KT/KT) (MB)    (FT/S) (FT/S/D)
BUOY 41004       0550   79 76  290/ 12/ 14 1012.2S   3/ 5   2/ 9
BUOY 41008       0550   79 78  310/ 14/ 16 1014.4F   2/ 2
FOLLY BEACH CMAN 0600   75     320/  4/  6 1013.8R
CAPERS NEARSHORE 0508   78     320/ 10/ 12 1013.5R
FRIPP NEARSHORE  0500   80     310/ 12/ 14 1013.3R


STATION/POSITION TIME  TEMP    WIND        PRES    WAVE   SWELL
                       AIR SEA DIR/SP/G            HT/PER HT/PER/DIR
                 (UTC) (F)     (DEG/KT/KT) (MB)    (FT/S) (FT/S/D)
5E ST. MARYS GA  0521      79                N/A     1/ 9
FRYING PAN BUOY  0550   73 75   10/ 12/ 14 1014.5R   4/ 6   2/120/ 9
BUOY 41025       0550   65 76  360/ 19/ 25 1011.8R   5/ 4   2/ 70/ 9
CAPE LOOKOUT NC  0600   63     340/ 11/ 13 1013.7R
BUOY 41002       0550   76 75  240/ 16/ 19 1013.5F   4/ 6   2/100/ 9
BUOY 41010       0520   80 79  210/ 12/ 14 1015.8S
ST AUGUSTINE FL  0600   76 74  280/  8/  9 1016.3S


$$


USA.gov is the U.S. government's official web portal to all federal, state and local government web resources and services.